This is the latest recevied weather packets stored in our database for station/object CX5ACA-13. If no packets are shown the sender has not sent any weather packets the latest 10 day(s).
| Time | Temp. | Humidity | Pressure | Rain* | Wind** | Luminosity | Snow |
|---|---|---|---|---|---|---|---|
| 1777764855 | 15.56° C | 61% | 1025.3 hPa | 0 mm | - | 0 W/m² | - |
| 1777764552 | 15.56° C | 61% | 1025.4 hPa | 0 mm | - | 0 W/m² | - |
| 1777764248 | 15.56° C | 61% | 1025.3 hPa | 0 mm | - | 0 W/m² | - |
| 1777763945 | 15.56° C | 63% | 1025.3 hPa | 0 mm | - | 0 W/m² | - |
| 1777763643 | 15.56° C | 61% | 1025.3 hPa | 0 mm | - | 0 W/m² | - |
| 1777763341 | 15.56° C | 58% | 1025.2 hPa | 0 mm | - | 0 W/m² | - |
| 1777763039 | 15.56° C | 57% | 1025.2 hPa | 0 mm | - | 0 W/m² | - |
| 1777762736 | 15.56° C | 60% | 1025.3 hPa | 0 mm | - | 0 W/m² | - |
| 1777762432 | 15.56° C | 60% | 1025.1 hPa | 0 mm | - | 0 W/m² | - |
| 1777762129 | 15.56° C | 63% | 1025 hPa | 0 mm | - | 0 W/m² | - |
| 1777761825 | 15.56° C | 62% | 1025.3 hPa | 0 mm | - | 0 W/m² | - |
| 1777761523 | 15.56° C | 60% | 1025.2 hPa | 0 mm | - | 0 W/m² | - |
| 1777761221 | 15.56° C | 62% | 1025 hPa | 0 mm | - | 0 W/m² | - |
| 1777760918 | 15.56° C | 63% | 1025 hPa | 0 mm | - | 0 W/m² | - |
| 1777760616 | 15.56° C | 61% | 1025.1 hPa | 0 mm | - | 0 W/m² | - |
| 1777760311 | 15.56° C | 62% | 1025.3 hPa | 0 mm | - | 0 W/m² | - |
| 1777760007 | 15.56° C | 61% | 1025 hPa | 0 mm | - | 0 W/m² | - |
| 1777759705 | 15.56° C | 62% | 1025 hPa | 0 mm | - | 0 W/m² | - |
| 1777759400 | 15.56° C | 61% | 1025 hPa | 0 mm | - | 0 W/m² | - |
| 1777759097 | 15° C | 61% | 1024.8 hPa | 0 mm | - | 0 W/m² | - |
| 1777758795 | 15.56° C | 61% | 1024.9 hPa | 0 mm | - | 0 W/m² | - |
| 1777758492 | 15.56° C | 62% | 1024.8 hPa | 0 mm | - | 0 W/m² | - |
| 1777758188 | 15.56° C | 64% | 1024.6 hPa | 0 mm | - | 0 W/m² | - |
| 1777757886 | 15° C | 61% | 1024.8 hPa | 0 mm | - | 0 W/m² | - |
| 1777757583 | 15° C | 62% | 1024.7 hPa | 0 mm | - | 0 W/m² | - |
* Rain latest hour (hover to see other rain measurements)
** Current wind speed in m/s (hover to see current wind gust speed)